Weather History for Warrensburg, MO

Change the Weather History Date:

Tuesday, December 4, 2012

  Actual Average (KSZL) Record (KSZL)
Temperature  
Mean Temperature 46 °F -  
Max Temperature 59 °F 46 °F 73 °F (2001)
Min Temperature 33 °F 29 °F 3 °F (2006)
Degree Days  
Heating Degree Days 19    
Moisture  
Dew Point 31 °F    
Average Humidity 55    
Maximum Humidity 87    
Minimum Humidity 31    
Precipitation  
Precipitation 0.04 in - - ()
Sea Level Pressure  
Sea Level Pressure 30.21 in    
Wind  
Wind Speed 5 mph (NW)    
Max Wind Speed 9 mph    
Max Gust Speed -    
Visibility 10 miles    
Events      
Averages and records for this station are not official NWS values.
T = Trace of Precipitation, MM = Missing Value Source: NWS Daily Summary

Daily Weather History Graph

Daily Weather History Graph

Search for Another Location

Airport:

Trip Planner

Search our weather history database for the weather conditions in past years. The results will help you decide how hot, cold, wet, or windy it might be!

Date:

Astronomy

Dec. 04, 2012 Rise Set
Actual Time 7:17 AM CST 4:53 PM CST
Civil Twilight 6:48 AM CST 5:22 PM CST
Nautical Twilight 6:15 AM CST 5:56 PM CST
Astronomical Twilight 5:42 AM CST 6:28 PM CST
Moon 10:39 PM CST (12/4) 11:14 AM CST (12/4)
Length of Visible Light 10h 34m
Length of Day
9h 35m
Waning Gibbous, 69% of the Moon is Illuminated
Dec 4
Waning Gibbous
Dec 6
Last Quarter
Dec 13
New
Dec 19
First Quarter
Dec 28
Full

Hourly Weather History & Observations

Time (CST) Temp. Windchill Dew Point Humidity Pressure Visibility Wind Dir Wind Speed Gust Speed Precip Events Conditions
12:15 AM 51.8 °F - 39.2 °F 62% 30.03 in 10.0 mi North 5.8 mph - N/A   Scattered Clouds
12:35 AM 51.8 °F - 39.2 °F 62% 30.04 in 10.0 mi NNW 5.8 mph - N/A   Mostly Cloudy
12:55 AM 50.0 °F - 37.4 °F 62% 30.04 in 10.0 mi NNW 8.1 mph - N/A   Scattered Clouds
1:15 AM 50.0 °F - 37.4 °F 62% 30.05 in 10.0 mi NNW 9.2 mph - 0.01 in   Clear
1:35 AM 50.0 °F - 37.4 °F 62% 30.06 in 10.0 mi NNW 6.9 mph - 0.01 in   Clear
1:55 AM 50.0 °F - 35.6 °F 58% 30.08 in 10.0 mi NW 4.6 mph - 0.01 in   Clear
2:15 AM 50.0 °F - 35.6 °F 58% 30.10 in 10.0 mi NNW 4.6 mph - N/A   Clear
2:35 AM 50.0 °F - 35.6 °F 58% 30.10 in 10.0 mi NW 4.6 mph - N/A   Clear
2:55 AM 48.2 °F - 35.6 °F 62% 30.10 in 10.0 mi NW 5.8 mph - N/A   Clear
3:15 AM 48.2 °F - 35.6 °F 62% 30.11 in 10.0 mi NNW 5.8 mph - N/A   Clear
3:35 AM 48.2 °F - 35.6 °F 62% 30.11 in 10.0 mi NW 5.8 mph - N/A   Clear
3:55 AM 46.4 °F 43.5 °F 35.6 °F 66% 30.11 in 10.0 mi NNW 5.8 mph - N/A   Clear
4:15 AM 46.4 °F 44.3 °F 33.8 °F 62% 30.13 in 10.0 mi NW 4.6 mph - 0.01 in   Clear
4:35 AM 46.4 °F 43.5 °F 33.8 °F 62% 30.13 in 10.0 mi NNW 5.8 mph - 0.01 in   Clear
4:55 AM 46.4 °F 44.3 °F 33.8 °F 62% 30.13 in 10.0 mi NW 4.6 mph - 0.01 in   Clear
5:15 AM 46.4 °F 43.5 °F 33.8 °F 62% 30.15 in 10.0 mi NW 5.8 mph - N/A   Clear
5:35 AM 46.4 °F 44.3 °F 32.0 °F 57% 30.16 in 10.0 mi NW 4.6 mph - N/A   Clear
5:55 AM 44.6 °F 40.7 °F 32.0 °F 61% 30.17 in 10.0 mi NW 6.9 mph - N/A   Clear
6:15 AM 44.6 °F 41.4 °F 32.0 °F 61% 30.17 in 10.0 mi NW 5.8 mph - N/A   Clear
6:35 AM 42.8 °F 38.6 °F 32.0 °F 66% 30.18 in 10.0 mi NW 6.9 mph - N/A   Clear
6:55 AM 42.8 °F 40.1 °F 32.0 °F 66% 30.19 in 10.0 mi NW 4.6 mph - N/A   Clear
7:15 AM 41.0 °F 37.1 °F 32.0 °F 70% 30.19 in 10.0 mi NNW 5.8 mph - N/A   Clear
7:35 AM 41.0 °F 37.1 °F 32.0 °F 70% 30.21 in 10.0 mi NW 5.8 mph - N/A   Clear
7:55 AM 41.0 °F 36.4 °F 32.0 °F 70% 30.22 in 10.0 mi NW 6.9 mph - N/A   Clear
8:15 AM 41.0 °F 37.1 °F 32.0 °F 70% 30.23 in 10.0 mi NW 5.8 mph - 0.01 in   Clear
8:55 AM 44.6 °F 41.4 °F 32.0 °F 61% 30.23 in 10.0 mi NNW 5.8 mph - 0.01 in   Clear
9:15 AM 44.6 °F 42.2 °F 32.0 °F 61% 30.24 in 10.0 mi NNW 4.6 mph - N/A   Clear
9:35 AM 48.2 °F - 32.0 °F 54% 30.25 in 10.0 mi NNW 3.5 mph - N/A   Clear
9:55 AM 51.8 °F - 32.0 °F 47% 30.26 in 10.0 mi North 3.5 mph - N/A   Clear
10:15 AM 51.8 °F - 32.0 °F 47% 30.26 in 10.0 mi North 5.8 mph - N/A   Clear
10:35 AM 53.6 °F - 32.0 °F 44% 30.25 in 10.0 mi North 5.8 mph - N/A   Clear
10:55 AM 53.6 °F - 32.0 °F 44% 30.25 in 10.0 mi North 4.6 mph - N/A   Clear
11:35 AM 55.4 °F - 30.2 °F 38% 30.25 in 10.0 mi North 5.8 mph - N/A   Clear
11:55 AM 55.4 °F - 28.4 °F 36% 30.25 in 10.0 mi North 3.5 mph - N/A   Clear
12:15 PM 57.2 °F - 30.2 °F 36% 30.25 in 10.0 mi North 3.5 mph - N/A   Clear
12:35 PM 59.0 °F - 30.2 °F 34% 30.24 in 10.0 mi WNW 4.6 mph - N/A   Clear
12:55 PM 59.0 °F - 30.2 °F 34% 30.24 in 10.0 mi NNW 8.1 mph - N/A   Clear
1:15 PM 59.0 °F - 28.4 °F 31% 30.24 in 10.0 mi NW 8.1 mph - N/A   Clear
1:35 PM 59.0 °F - 28.4 °F 31% 30.24 in 10.0 mi NW 4.6 mph - N/A   Clear
1:55 PM 59.0 °F - 28.4 °F 31% 30.23 in 10.0 mi NW 6.9 mph - N/A   Clear
2:15 PM 59.0 °F - 30.2 °F 34% 30.23 in 10.0 mi NNW 4.6 mph - N/A   Clear
2:35 PM 59.0 °F - 28.4 °F 31% 30.23 in 10.0 mi NW 4.6 mph - N/A   Clear
2:55 PM 59.0 °F - 30.2 °F 34% 30.24 in 10.0 mi Calm Calm - N/A   Clear
3:15 PM 59.0 °F - 28.4 °F 31% 30.24 in 10.0 mi West 3.5 mph - N/A   Clear
3:35 PM 59.0 °F - 28.4 °F 31% 30.25 in 10.0 mi Calm Calm - N/A   Clear
3:55 PM 59.0 °F - 28.4 °F 31% 30.25 in 10.0 mi Calm Calm - N/A   Clear
4:15 PM 59.0 °F - 28.4 °F 31% 30.25 in 10.0 mi Calm Calm - N/A   Clear
4:35 PM 57.2 °F - 28.4 °F 33% 30.26 in 10.0 mi Calm Calm - N/A   Clear
4:55 PM 55.4 °F - 26.6 °F 33% 30.26 in 10.0 mi Calm Calm - N/A   Clear
5:35 PM 53.6 °F - 24.8 °F 33% 30.26 in 10.0 mi Calm Calm - N/A   Clear
5:55 PM 51.8 °F - 28.4 °F 41% 30.27 in 10.0 mi Calm Calm - N/A   Clear
6:15 PM 51.8 °F - 24.8 °F 35% 30.28 in 10.0 mi Calm Calm - N/A   Clear
6:35 PM 48.2 °F - 28.4 °F 46% 30.28 in 10.0 mi Calm Calm - N/A   Clear
6:55 PM 46.4 °F - 28.4 °F 50% 30.28 in 10.0 mi Calm Calm - N/A   Clear
7:15 PM 44.6 °F - 30.2 °F 57% 30.28 in 10.0 mi Calm Calm - N/A   Clear
7:55 PM 46.4 °F - 28.4 °F 50% 30.29 in 10.0 mi Calm Calm - 0.01 in   Clear
8:15 PM 42.8 °F - 32.0 °F 66% 30.29 in 10.0 mi Calm Calm - N/A   Clear
8:35 PM 41.0 °F - 32.0 °F 70% 30.29 in 10.0 mi Calm Calm - N/A   Clear
8:55 PM 41.0 °F - 30.2 °F 65% 30.29 in 10.0 mi Calm Calm - N/A   Clear
9:15 PM 37.4 °F 32.8 °F 32.0 °F 81% 30.30 in 10.0 mi SSE 5.8 mph - N/A   Clear
9:35 PM 37.4 °F 34.9 °F 30.2 °F 75% 30.30 in 10.0 mi South 3.5 mph - N/A   Clear
9:55 PM 35.6 °F - 30.2 °F 81% 30.30 in 10.0 mi Calm Calm - N/A   Clear
10:15 PM 39.2 °F - 30.2 °F 70% 30.30 in 10.0 mi Calm Calm - N/A   Clear
10:35 PM 37.4 °F - 30.2 °F 75% 30.31 in 10.0 mi Calm Calm - N/A   Clear
10:55 PM 35.6 °F 31.7 °F 30.2 °F 81% 30.31 in 10.0 mi SSE 4.6 mph - N/A   Clear
11:15 PM 33.8 °F 30.8 °F 30.2 °F 87% 30.30 in 10.0 mi South 3.5 mph - N/A   Clear
11:35 PM 33.8 °F 29.6 °F 30.2 °F 87% 30.30 in 10.0 mi South 4.6 mph - N/A   Clear
11:55 PM 33.8 °F 28.6 °F 30.2 °F 87% 30.30 in 10.0 mi South 5.8 mph - N/A   Clear